Weather History for Calvi, France

Change the Weather History Date:

Friday, December 7, 2012

  Actual Average Record
Temperature  
Mean Temperature 52 °F -  
Max Temperature 55 °F 55 °F 73 °F (2010)
Min Temperature 48 °F 43 °F 35 °F (1997)
Degree Days  
Heating Degree Days 14    
Growing Degree Days 2 (Base 50)    
Moisture  
Dew Point 38 °F    
Average Humidity 60    
Maximum Humidity 87    
Minimum Humidity 47    
Precipitation  
Precipitation 0.00 in - - ()
Sea Level Pressure  
Sea Level Pressure 29.82 in    
Wind  
Wind Speed 12 mph ()    
Max Wind Speed 17 mph    
Max Gust Speed 31 mph    
Visibility 5.9 miles    
Events Rain    
Averages and records for this station are not official NWS values.
T = Trace of Precipitation, MM = Missing Value Source: Averaged Metar Reports

Daily Weather History Graph

Daily Weather History Graph

Search for Another Location

Airport:

Trip Planner

Search our weather history database for the weather conditions in past years. The results will help you decide how hot, cold, wet, or windy it might be!

Date:

Astronomy

Dec. 07, 2012 Rise Set
Actual Time 7:41 AM CET 4:51 PM CET
Civil Twilight 7:09 AM CET 5:23 PM CET
Nautical Twilight 6:34 AM CET 5:58 PM CET
Astronomical Twilight 5:59 AM CET 6:32 PM CET
Moon 12:35 AM CET (12/7) 12:46 PM CET (12/7)
Length of Visible Light 10h 14m
Length of Day
9h 10m
Last Quarter, 41% of the Moon is Illuminated
Dec 7
Last Quarter
Dec 13
New
Dec 20
First Quarter
Dec 28
Full
Jan 5
Last Quarter

Hourly Weather History & Observations

Time (CET) Temp. Dew Point Humidity Pressure Visibility Wind Dir Wind Speed Gust Speed Precip Events Conditions
7:00 AM 50.0 °F 30.2 °F 47% 29.89 in 6.2 mi South 17.3 mph 31.1 mph N/A   Mostly Cloudy
7:30 AM 50.0 °F 30.2 °F 47% 29.89 in 6.2 mi South 15.0 mph - N/A   Mostly Cloudy
8:00 AM 50.0 °F 30.2 °F 47% 29.89 in 6.2 mi SSW 13.8 mph - N/A   Mostly Cloudy
8:30 AM 48.2 °F 32.0 °F 54% 29.89 in 6.2 mi South 12.7 mph - N/A   Mostly Cloudy
9:00 AM 50.0 °F 33.8 °F 54% 29.89 in 6.2 mi SSW 13.8 mph - N/A   Mostly Cloudy
9:30 AM 51.8 °F 35.6 °F 54% 29.89 in 6.2 mi South 12.7 mph - N/A   Mostly Cloudy
10:00 AM 51.8 °F 35.6 °F 54% 29.89 in 6.2 mi SSW 11.5 mph - N/A   Mostly Cloudy
10:30 AM 53.6 °F 37.4 °F 54% 29.89 in 6.2 mi SSW 12.7 mph - N/A   Mostly Cloudy
11:00 AM 53.6 °F 39.2 °F 58% 29.89 in 6.2 mi South 13.8 mph - N/A   Mostly Cloudy
11:30 AM 55.4 °F 41.0 °F 58% 29.86 in 6.2 mi SSW 13.8 mph - N/A   Scattered Clouds
12:00 PM 53.6 °F 41.0 °F 62% 29.86 in 6.2 mi SSW 13.8 mph - N/A   Scattered Clouds
1:00 PM 55.4 °F 42.8 °F 63% 29.80 in 6.2 mi SW 15.0 mph - N/A   Scattered Clouds
1:30 PM 53.6 °F 41.0 °F 62% 29.80 in 6.2 mi SSW 15.0 mph - N/A   Scattered Clouds
2:00 PM 53.6 °F 39.2 °F 58% 29.80 in 6.2 mi SW 16.1 mph - N/A   Scattered Clouds
2:30 PM 53.6 °F 41.0 °F 62% 29.77 in 6.2 mi SSW 15.0 mph - N/A   Mostly Cloudy
3:00 PM 53.6 °F 41.0 °F 62% 29.77 in 6.2 mi SSW 16.1 mph - N/A Rain Light Rain Showers
3:30 PM 51.8 °F 42.8 °F 71% 29.74 in 5.0 mi SSW 10.4 mph - N/A Rain Light Rain Showers
4:00 PM 51.8 °F 42.8 °F 71% 29.71 in 6.2 mi SSW 11.5 mph - N/A Rain Light Rain Showers
5:00 PM 50.0 °F 46.4 °F 87% 29.68 in 3.7 mi SSW 11.5 mph - N/A Rain Rain
5:30 PM 51.8 °F 46.4 °F 82% 29.68 in 3.7 mi SSW 15.0 mph - N/A Rain Rain